Regional Weather Roundup
Issued by NWS

Home | Current Version | Previous Version | Text Only | Print | Product List | Glossary On
Versions: 1 2 3 4 5 6 7 8 9 10 11 12 13 14 15 16 17 18 19 20 21 22 23 24 25 26 27 28 29 30 31 32 33 34 35 36 37 38 39 40 41 42 43 44 45 46 47 48 49 50
000
ASUS43 KMPX 180701
RWRMN
WEATHER ROUNDUP FOR MINNESOTA
NATIONAL WEATHER SERVICE TWIN CITIES/CHANHASSEN MN
100 AM CST SAT NOV 18 2017


NOTE: "FAIR" INDICATES FEW OR NO CLOUDS BELOW 12,000 FEET WITH NO
SIGNIFICANT WEATHER AND/OR OBSTRUCTIONS TO VISIBILITY. N/A MEANS
CURRENT SKY AND/OR WEATHER CONDITIONS ARE NOT AVAILABLE.

MNZ060>063-068>070-180800-
   Twin Cities Metro

CITY           SKY/WX    TMP DP  RH WIND       PRES   REMARKS
TWIN CITIES    CLOUDY    36  35  96 N7        29.68F
ST PAUL        CLOUDY    36  34  92 N3        29.68F
CRYSTAL        CLOUDY    35  31  85 NW7       29.69R FOG     WCI  29
BLAINE         CLOUDY    36  36 100 N5        29.67F FOG
LAKEVILLE      CLOUDY    36  36 100 NW3       29.69R
EDEN PRAIRIE   CLOUDY    36  33  89 NW6       29.69R FOG
SOUTH ST PAUL  CLOUDY    36  36 100 N9        29.67S
LAKE ELMO      CLOUDY    36  34  93 NW6       29.69R FOG
$$
MNZ001>005-007-008-013>017-022>024-027-028-180800-
   Northwest Minnesota

CITY           SKY/WX    TMP DP  RH WIND       PRES   REMARKS
BEMIDJI        CLOUDY    19  16  85 NW6       29.76R WCI  11
HALLOCK        CLOUDY     9   7  92 CALM      29.82F
ROSEAU         CLOUDY    16  10  79 W8        29.79F WCI   5
WARROAD        PTCLDY    12  10  92 W6        29.78F WCI   3
CROOKSTON      PTCLDY    16  14  93 NW5       29.83S WCI   9
FOSSTON        CLOUDY    16  14  93 CALM      29.80R
DETROIT LAKES  CLOUDY    21  19  93 NW8       29.78S WCI  12
MOORHEAD       CLOUDY    19  16  86 CALM      29.83S
PARK RAPIDS    CLOUDY    25  19  78 N12       29.74R WCI  14
MAHNOMEN       FAIR      19  16  89 N6        29.79R WCI  11
$$
MNZ006-009>011-018-025>026-180800-
   North Central Minnesota

CITY           SKY/WX    TMP DP  RH WIND       PRES   REMARKS
BAUDETTE       CLOUDY    16  13  88 NW7       29.75S WCI   6
FLAG ISLAND    CLEAR     12  10  92 W9        29.77R WCI   0
INTL FALLS     PTCLDY    20  15  81 NW6       29.73R HAZE    WCI  12
WASKISH        CLOUDY    18  16  93 NW5       29.76S WCI  11
BIG FORK       CLOUDY    23  18  80 NW3       29.72F
LONGVILLE      CLOUDY    27  19  74 NW6       29.73R WCI  20
GRAND RAPIDS   CLOUDY    25  22  88 NW9       29.72S WCI  15
CRANE LAKE     CLOUDY    25  23  93 CALM      29.73R
ORR            CLOUDY    21  18  86 NW6       29.69S WCI  14
COOK           CLOUDY    23  21  93 NW3       29.71R
WALKER         FAIR      22  17  80 NW10      29.75R WCI  11
$$
MNZ012-019>021-037-180800-
   Northeast Minnesota

CITY           SKY/WX    TMP DP  RH WIND       PRES   REMARKS
DULUTH         CLOUDY    31  30  96 NW9       29.65S WCI  23
ELY            CLOUDY    28  27  93 N3        29.67R
HIBBING        CLOUDY    26  22  84 N13       29.69R WCI  15
EVELETH        CLOUDY    27  21  80 NW7       29.69R WCI  19
DULUTH HARBOR  PTCLDY    36  32  87 N3        29.69S
TWO HARBORS    CLOUDY    36  30  80 CALM      29.65R
SILVER BAY     CLOUDY    34  30  86 CALM      29.64R
GRAND MARAIS     N/A     33  31  92 CALM      29.67R
G MARAIS ARPRT CLOUDY    28  23  80 NW7       29.62R WCI  21
$$
MNZ029>031-032-039>041-046>048-054>057-064-180800-
   West Central Minnesota

CITY           SKY/WX    TMP DP  RH WIND       PRES   REMARKS
FERGUS FALLS   CLOUDY    21  16  79 N5        29.81S WCI  15
WHEATON        CLOUDY    25  18  74 NW9       29.82R WCI  15
MORRIS         CLOUDY    27  21  80 NW13      29.76S WCI  16
ALEXANDRIA     CLOUDY    29  23  78 NW7       29.75R WCI  22
ELBOW LAKE     FAIR      23  19  84 NW9       29.78R WCI  13
WADENA         CLOUDY    25  21  86 NW7       29.75R WCI  17
GLENWOOD       CLOUDY    30  27  86 NW7       29.73S WCI  23
APPLETON         N/A     28  21  74 NW12G17   29.77S WCI  18
BENSON         CLOUDY    28  21  74 N12       29.75F WCI  18
ORTONVILLE     CLOUDY    27  21  80 MISG      29.78R
MADISON        CLOUDY    30  25  80 NW12      29.78R WCI  21
WILLMAR        FAIR      32  30  93 NW10      29.74R WCI  24
$$
MNZ033>034-036-042>043-049>051-058-059-180800-
   Central Minnesota

CITY           SKY/WX    TMP DP  RH WIND       PRES   REMARKS
ST CLOUD       CLOUDY    32  32 100 NW7       29.70R WCI  26
SAUK CENTRE    PTSUNNY   30  26  86 NW7       29.74R WCI  23
PAYNESVILLE    CLOUDY    32  31  96 NW8       29.74R WCI  25
AITKIN         CLOUDY    28  25  86 NW5       29.70R WCI  23
PINE RIVER     CLOUDY    27  19  74 NW6       29.77R WCI  20
BRAINERD       CLOUDY    31  26  82 NW8       29.72R WCI  23
STAPLES        CLOUDY    27  21  80 NW9       29.73R WCI  17
LONG PRAIRIE   FAIR      30  27  86 W8        29.72R WCI  23
LITTLE FALLS   CLOUDY    32  27  80 CALM      29.72R
LITCHFIELD     CLOUDY    36  34  93 NW8       29.72R
BUFFALO        CLOUDY    34  32  93 W3        29.72S FOG
MAPLE LAKE     CLOUDY    34  33  98 NW6       29.71F FOG     WCI  29
HUTCHINSON     CLOUDY    34  33  96 W7        29.72R WCI  28
$$
MNZ037-044-045-052-053-180800-
   East Central Minnesota

CITY           SKY/WX    TMP DP  RH WIND       PRES   REMARKS
PRINCETON      CLOUDY    32  30  93 CALM      29.69F FOG
MORA             N/A     32  32 100 CALM      29.69F FOG
CAMBRIDGE      PTCLDY    34  34 100 CALM      29.68S FOG
RUSH CITY      CLOUDY    32  31  97 N3        29.69S FOG
MOOSE LAKE     CLOUDY    32  30  93 N6        29.66F WCI  26
HINCKLEY       FAIR      32  32 100 CALM      29.68R FOG
CLOQUET        CLOUDY    30  28  93 NW10      29.65F WCI  21
MCGREGOR       CLOUDY    30  30 100 NW7       29.69S WCI  23
$$
MNZ071>073-080-081-089-090-097-098-180800-
   Southwest Minnesota

CITY           SKY/WX    TMP DP  RH WIND       PRES   REMARKS
MONTEVIDEO     CLOUDY    28  25  86 N12       29.74  WCI  18
GRANITE FALLS  CLOUDY    32  26  78 NW13      29.75F WCI  22
CANBY          CLOUDY    31  26  80 W10       29.78R WCI  22
MARSHALL       CLOUDY    30  26  85 NW9       29.76R WCI  22
REDWOOD FALLS  CLOUDY    33  27  78 NW7       29.72R WCI  27
OLIVIA         MOCLDY    32  30  93 NW9       29.72S WCI  24
PIPESTONE      CLOUDY    30  27  86 N8        29.71R WCI  23
WINDOM           N/A     34  21  60 NW15      29.69F WCI  24
WORTHINGTON    CLOUDY    33  29  85 N14       29.69F WCI  23
JACKSON        CLOUDY    34  32  93 N8        29.68F WCI  27
SLAYTON        CLOUDY    31  27  86 N12       29.71S WCI  22
$$
MNZ065>067-074>077-082>085-091>093-180800-
   South Central Minnesota

CITY           SKY/WX    TMP DP  RH WIND       PRES   REMARKS
MANKATO        CLOUDY    36  34  92 N8        29.70R FOG
NEW ULM        CLOUDY    34  32  93 CALM      29.70F
ST JAMES       CLOUDY    36  34  93 NW10      29.70F
FAIRMONT       CLOUDY    35  34  96 N15       29.68S WCI  25
GLENCOE        CLOUDY    35  35 100 NW7       29.69R FOG     WCI  29
FARIBAULT      CLOUDY    36  36 100 NW9       29.69R FOG
OWATONNA       CLOUDY    36  36 100 NW13      29.68R FOG
WASECA         CLOUDY    36  36 100 NW12G17   29.71R FOG
ALBERT LEA     CLOUDY    36  36 100 N8        29.65F FOG
$$
MNZ078>079-086>088-094>096-180800-
   Southeast Minnesota

CITY           SKY/WX    TMP DP  RH WIND       PRES   REMARKS
ROCHESTER      CLOUDY    35  35 100 N9        29.64R WCI  28
RED WING       CLOUDY    37  34  87 N5        29.67R
STANTON        CLOUDY    37  35  92 N7        29.66R FOG
DODGE CENTER   CLOUDY    36  34  93 N8        29.64R FOG
WINONA         CLOUDY    36  36 100 NW3       29.63F
AUSTIN         CLOUDY    36  34  93 N5        29.64S FOG
PRESTON        CLOUDY    35  34  96 N7        29.61S FOG     WCI  29
$$
ABBREVIATIONS USED IN REMARKS
   TC - TEMPERATURES IN CELSIUS
  WCI - WIND CHILL INDEX
   HX - HEAT INDEX
  VSB - VISIBILITY
$$




USA.gov is the U.S. government's official web portal to all federal, state and local government web resources and services.